Probability
0 0 0 0 0 0 0 0 0 0 0 0 0 0 0 0 0 0 0 0 0 0 0 0 0 0 0 0 0 0 0 0 0 0 0 0 0 0 0 0 0 0 0
0 0 0 0 0 0 0 0 0 0 0 0 0 0 0 0 0 0 0 0 0 0 0 0 0 0 0 0 0 0 0 0 0 0 0 0 0 0 0 0 0 0 0
0 0 0 0 0 0 0 0 0 0 0 0 0 0 0 0 0 0 0 0 0 0 0 0 0 0 0 0 0 0 0 0 0 0 0 0 0 0 0 0 0 0 0
0 0 0 0 0 0 0 0 0 0 0 0 0 0 0 0 0 0 0 0 0 0 0 0 0 0 0 0 0 0 0 0 0 0 0 0 0 0 0 0 0 0 0
0 0 0 0 0 0 0 0 0 0 0 0 0 0 0 0 0 0 0 0 0 0 0 0 0 0 0 0 0 0 0 0 0 0 0 0 0 0 0 0 0 0 0
0 0 0 0 0 0 0 0 0 0 0 0 0 0 0 0 0 0 0 0 0 0 0 0 0 0 0 0 0 0 0 0 0 0 0 0 0 0 0 0 0 0 0
0 0 0 0 0 0 0 0 0 0 0 0 0 0 0 0 0 0 0 0 0 0 0 0 0 0 0 0 0 0 0 0 0 0 0 0 0 0 0 0 0 0 0
0 0 0 0 0 0 0 0 0 0 0 0 0 0 0 0 0 0 0 0 0 0 0 0 0 0 0 0 0 0 0 0 0 0 0 0 0 0 0 0 0 0 0
0 0 0 0 0 0 0 0 0 0 0 0 0 0 0 0 0 0 0 0 0 0 0 0 0 0 0 0 0 0 0 0 0 0 0 0 0 0 0 0 0 0 0
0 0 0 0 0 0 0 0 0 0 0 0 0 0 0 0 0 0 0 0 0 0 0 0 0 0 0 0 0 0 0 0 0 0 0 0 0 0 0 0 0 0 0
0 0 0 0 0 0 0 0 0 0 0 0 0 0 0 0 0 0 0 0 0 0 0 0 0 0 0 0 0 0 0 0 0 0 0 0 0 0 0 0 0 0 0
0 0 0 0 0 0 0 0 0 0 0 0 0 0 0 0 0 0 0 0 0 0 0 0 0 0 0 0 0 0 0 0 0 0 0 0 0 0 0 0 0 0 0
0 0 0 0 0 0 0 0 0 0 0 0 0 0 0 0 0 0 0 0 0 0 0 0 0 0 0 0 0 0 0 0 0 0 0 0 0 0 0 0 0 0 0
0 0 0 0 0 0 0 0 0 0 0 0 0 0 0 0 0 0 0 0 0 0 0 0 0 0 0 0 0 0 0 0 0 0 0 0 0 0 0 0 0 0 0
0 0 0 0 0 0 0 0 0 0 0 0 0 0 0 0 0 0 0 0 0 0 0 0 0 0 0 0 0 0 0 0 0 0 0 0 0 0 0 0 0 0 0
0 0 0 0 0 0 0 0 0 0 0 0 0 0 0 0 0 0 0 0 0 0 0 0 0 0 0 0 0 0 0 0 0 0 0 0 0 0 0 0 0 0 0
0 0 0 0 0 0 0 0 0 0 0 0 0 0 0 0 0 0 0 0 0 0 0 0 0 0 0 0 0 0 0 0 0 0 0 0 0 0 0 0 0 0 0
0 0 0 0 0 0 0 0 0 0 0 0 0 0 0 0 0 0 0 0 0 0 0 0 0 0 0 0 0 0 0 0 0 0 0 0 0 0 0 0 0 0 0
0 0 0 0 0 0 0 0 0 0 0 0 0 0 0 0 0 0 0 0 0 0 0 0 0 0 0 0 0 0 0 0 0 0 0 0 0 0 0 0 0 0 0
0 0 0 0 0 0 0 0 0 0 0 0 0 0 0 0 0 0 0 0 0 0 0 0 0 0 0 0 0 0 0 0 0 0 0 0 0 0 0 0 0 0 0
0 0 0 0 0 0 0 0 0 0 0 0 0 0 0 0 0 0 0 0 0 0 0 0 0 0 0 0 0 0 0 0 0 0 0 0 0 0 0 0 0 0 0
0 0 0 0 0 0 0 0 0 0 0 0 0 0 0 0 0 0 0 0 0 0 0 0 0 0 0 0 0 0 0 0 0 0 0 0 0 0 0 0 0 0 0
0 0 0 0 0 0 0 0 0 0 0 0 0 0 0 0 0 0 0 0 0 0 0 0 0 0 0 0 0 0 0 0 0 0 0 0 0 0 0 0 0 0 0
0 0 0 0 0 0 0 0 0 0 0 0 0 0 0 0 0 0 0 0 0 0 0 0 0 0 0 0 0 0 0 0 0 0 0 0 0 0 0 0 0 0 0
0 0 0 0 0 0 0 0 0 0 0 0 0 0 0 0 0 0 0 0 0 0 0 0 0 0 0 0 0 0 0 0 0 0 0 0 0 0 0 0 0 0 0
0 0 0 0 0 0 0 0 0 0 0 0 0 0 0 0 0 0 0 0 0 0 0 0 0 0 0 0 0 0 0 0 0 0 0 0 0 0 0 0 0 0 0
Height
5520 5524 5528 5533 5540 5547 5555 5563 5572 5581 5590 5599 5609 5618 5626 5634 5642 5650 5657 5664 5671 5677 5682 5687 5692 5696 5700 5703 5705 5708 5709 5710 5710 5709 5708 5706 5704 5702 5699 5696 5692 5688 5683
5511 5515 5519 5525 5531 5538 5546 5554 5563 5572 5581 5590 5600 5608 5616 5625 5633 5641 5648 5655 5662 5668 5673 5678 5683 5688 5692 5695 5697 5699 5701 5701 5702 5701 5700 5698 5696 5694 5691 5688 5684 5679 5674
5503 5507 5511 5516 5522 5529 5538 5547 5555 5564 5573 5581 5591 5599 5607 5615 5624 5631 5639 5645 5652 5659 5665 5670 5675 5679 5683 5686 5689 5691 5692 5693 5693 5693 5692 5690 5688 5686 5683 5679 5675 5671 5666
5494 5498 5503 5508 5515 5522 5530 5538 5547 5556 5565 5574 5583 5591 5598 5607 5615 5623 5630 5637 5643 5650 5656 5661 5667 5671 5675 5678 5680 5682 5684 5684 5685 5685 5684 5682 5680 5678 5675 5671 5667 5662 5657
5486 5490 5496 5501 5508 5515 5522 5530 5539 5548 5557 5566 5574 5583 5590 5598 5606 5614 5621 5628 5635 5641 5647 5653 5658 5663 5667 5670 5672 5674 5675 5676 5677 5676 5676 5674 5672 5669 5667 5663 5659 5654 5649
5479 5483 5488 5494 5500 5507 5514 5522 5531 5539 5548 5558 5566 5574 5582 5590 5598 5606 5613 5620 5627 5633 5640 5645 5650 5655 5658 5661 5664 5666 5667 5668 5669 5668 5667 5666 5664 5661 5658 5654 5650 5646 5641
5472 5477 5482 5487 5493 5500 5507 5515 5524 5532 5541 5549 5558 5567 5575 5583 5591 5598 5605 5612 5619 5626 5631 5637 5642 5646 5650 5653 5655 5657 5659 5660 5660 5660 5659 5658 5656 5653 5650 5647 5642 5638 5632
5466 5469 5475 5480 5486 5493 5500 5508 5516 5524 5533 5542 5550 5559 5568 5576 5583 5590 5598 5604 5611 5617 5623 5628 5634 5638 5642 5645 5647 5649 5651 5652 5653 5653 5652 5650 5648 5645 5642 5639 5634 5629 5624
5459 5463 5468 5474 5480 5486 5494 5501 5508 5517 5525 5534 5542 5551 5560 5568 5575 5583 5590 5596 5603 5609 5615 5620 5625 5630 5633 5636 5639 5641 5643 5644 5644 5644 5643 5641 5639 5637 5634 5631 5627 5622 5616
5452 5456 5461 5466 5472 5479 5485 5493 5500 5508 5517 5526 5534 5543 5552 5560 5568 5575 5582 5589 5595 5602 5607 5612 5617 5621 5625 5628 5631 5633 5635 5636 5637 5636 5635 5634 5632 5629 5626 5623 5619 5614 5607
5445 5449 5454 5459 5464 5471 5477 5485 5493 5501 5510 5518 5527 5535 5544 5552 5560 5567 5574 5581 5588 5594 5600 5605 5609 5613 5617 5621 5623 5625 5627 5628 5628 5628 5627 5626 5624 5622 5619 5615 5611 5605 5599
5437 5441 5446 5451 5456 5463 5470 5478 5485 5494 5502 5511 5520 5528 5536 5544 5552 5559 5566 5573 5580 5586 5592 5597 5601 5606 5609 5613 5615 5617 5619 5620 5620 5620 5620 5619 5617 5614 5611 5607 5602 5597 5592
5429 5434 5438 5443 5449 5456 5463 5470 5478 5486 5495 5503 5512 5521 5529 5537 5544 5551 5558 5565 5572 5578 5584 5589 5593 5598 5601 5605 5607 5609 5611 5612 5613 5613 5612 5611 5609 5606 5603 5599 5595 5590 5584
5421 5426 5430 5436 5441 5448 5456 5463 5471 5479 5488 5497 5505 5514 5522 5529 5537 5544 5550 5557 5564 5569 5575 5580 5585 5589 5593 5597 5600 5602 5603 5605 5605 5606 5605 5603 5601 5599 5596 5592 5587 5582 5577
5412 5417 5423 5428 5434 5441 5448 5456 5464 5473 5481 5491 5499 5507 5515 5523 5530 5537 5543 5550 5556 5562 5567 5572 5578 5582 5587 5590 5592 5594 5596 5597 5598 5598 5597 5596 5594 5591 5588 5585 5580 5575 5570
5403 5409 5415 5421 5427 5434 5441 5449 5457 5465 5474 5483 5492 5500 5508 5515 5522 5529 5536 5542 5548 5554 5560 5565 5571 5575 5580 5583 5586 5587 5589 5590 5591 5591 5590 5589 5587 5584 5581 5577 5573 5569 5563
5395 5400 5406 5413 5420 5427 5434 5442 5450 5459 5467 5476 5485 5493 5501 5508 5515 5522 5528 5534 5541 5547 5553 5559 5563 5568 5572 5576 5579 5581 5582 5583 5583 5583 5583 5582 5580 5577 5574 5571 5567 5562 5557
5386 5392 5398 5405 5412 5420 5427 5435 5444 5452 5460 5469 5478 5486 5494 5501 5508 5515 5522 5528 5534 5541 5547 5552 5557 5561 5565 5569 5572 5573 5575 5576 5576 5577 5576 5575 5573 5571 5568 5565 5561 5557 5551
5378 5383 5390 5397 5405 5412 5420 5428 5436 5445 5453 5462 5470 5479 5486 5493 5500 5508 5515 5522 5529 5535 5541 5546 5550 5554 5558 5562 5564 5566 5568 5569 5570 5570 5569 5568 5567 5565 5562 5559 5555 5551 5546
5369 5376 5382 5390 5397 5405 5412 5420 5429 5437 5446 5455 5463 5472 5479 5487 5494 5502 5509 5516 5523 5529 5535 5540 5544 5548 5552 5555 5558 5560 5562 5563 5563 5563 5563 5562 5561 5559 5556 5553 5549 5545 5541
5361 5368 5375 5383 5390 5398 5405 5413 5422 5430 5439 5448 5457 5465 5473 5481 5489 5496 5503 5510 5517 5523 5529 5534 5538 5542 5546 5549 5551 5553 5555 5556 5557 5557 5557 5556 5555 5553 5551 5548 5544 5540 5535
5354 5361 5369 5376 5384 5392 5399 5407 5415 5424 5433 5442 5450 5459 5467 5475 5483 5491 5498 5505 5512 5518 5523 5528 5532 5536 5540 5543 5545 5547 5549 5550 5551 5551 5551 5550 5549 5548 5545 5542 5539 5535 5531
5348 5355 5363 5370 5378 5385 5393 5401 5410 5419 5428 5436 5445 5453 5461 5469 5477 5485 5492 5500 5506 5513 5518 5522 5527 5531 5534 5537 5540 5542 5543 5545 5545 5546 5545 5545 5544 5542 5540 5537 5534 5530 5526
5342 5349 5357 5365 5372 5379 5387 5395 5404 5413 5422 5431 5440 5448 5456 5465 5472 5480 5487 5494 5501 5507 5512 5517 5521 5525 5529 5531 5534 5536 5538 5539 5540 5540 5540 5539 5538 5537 5534 5532 5529 5526 5522
5337 5344 5352 5359 5367 5374 5382 5391 5400 5409 5417 5426 5435 5444 5452 5460 5468 5475 5482 5489 5495 5501 5507 5512 5516 5520 5523 5526 5529 5531 5532 5534 5534 5535 5535 5534 5533 5531 5529 5527 5524 5521 5518
5332 5340 5347 5355 5362 5370 5378 5387 5396 5405 5414 5423 5431 5440 5448 5456 5464 5471 5478 5484 5490 5496 5502 5507 5511 5515 5518 5521 5524 5526 5527 5529 5529 5530 5529 5529 5528 5527 5525 5523 5520 5517 5514
Wind_Speed
39 40 41 43 46 47 47 47 51 54 54 53 53 50 49 49 48 48 48 48 47 44 44 43 41 40 39 37 37 36 35 34 34 35 36 36 36 36 37 38 39 40 41
38 39 40 42 44 47 48 47 50 52 53 53 48 47 48 48 47 46 45 46 46 44 42 41 41 40 39 38 37 35 35 34 35 35 35 35 35 36 37 38 39 40 41
36 38 40 41 42 46 48 47 47 49 53 53 48 46 46 48 47 46 44 45 44 43 41 39 39 39 38 38 37 35 35 34 35 35 34 34 35 35 36 38 39 40 42
35 37 39 40 42 45 46 46 46 50 52 52 49 46 46 48 48 46 45 44 44 43 42 39 38 37 37 36 36 35 35 34 35 34 34 34 34 35 36 37 38 40 42
35 35 37 39 42 44 45 45 46 48 51 51 49 46 44 45 45 45 45 44 43 42 41 39 37 36 36 35 34 34 33 34 34 33 33 33 34 35 36 37 38 40 42
34 35 36 38 39 42 45 46 46 46 48 49 49 46 43 43 44 44 43 41 41 41 40 38 37 36 36 34 33 32 32 33 32 31 32 33 33 34 36 37 38 40 41
33 35 35 36 38 39 42 45 45 46 47 49 49 46 44 43 43 43 42 41 40 39 39 39 37 35 35 33 32 32 32 32 31 31 32 32 33 34 35 36 38 40 41
32 33 36 37 38 38 40 44 45 45 45 47 47 46 44 44 42 42 41 41 40 39 39 39 37 35 34 33 31 31 30 30 31 31 32 32 33 34 35 36 38 39 41
31 34 36 37 37 38 40 42 44 46 45 47 47 46 45 43 42 41 41 40 39 38 37 38 37 36 33 32 31 31 30 30 30 30 31 31 32 33 34 36 37 39 42
32 34 37 38 37 38 39 42 43 45 46 47 47 46 46 43 42 41 40 39 38 38 37 36 34 34 33 31 30 30 29 29 29 29 30 31 32 32 33 35 37 39 41
32 34 36 37 38 37 38 41 43 43 45 47 46 44 44 43 43 41 40 38 37 36 36 35 33 32 31 30 29 29 28 29 29 30 31 31 32 32 32 34 37 39 40
32 33 35 37 38 38 38 39 41 43 45 46 46 44 44 42 41 40 39 38 37 36 35 34 33 31 30 29 29 29 29 29 30 30 30 31 31 31 33 35 36 38 39
33 34 35 36 37 38 38 38 41 42 43 45 44 43 41 41 40 40 38 38 38 36 34 34 33 31 29 30 29 29 29 29 29 29 29 30 30 31 33 34 36 37 38
33 34 34 35 36 37 38 38 40 42 43 43 42 40 40 39 38 38 39 38 37 36 35 34 33 30 29 29 28 27 27 28 28 28 28 29 30 31 32 33 34 36 38
33 34 34 35 36 37 39 40 41 42 43 42 40 39 39 38 36 35 35 36 36 36 36 34 33 32 30 28 28 28 28 28 28 28 28 28 29 30 31 32 34 35 36
33 34 35 35 36 38 39 41 41 42 43 43 41 40 39 38 37 36 36 36 35 34 34 33 32 32 31 29 28 27 27 27 27 27 28 28 28 29 30 31 32 33 33
33 35 36 36 36 37 39 41 41 42 43 44 42 40 39 38 38 37 36 35 34 34 32 32 31 30 29 28 26 26 26 26 26 26 26 27 27 27 28 29 30 31 32
33 35 36 37 37 37 38 41 42 42 42 44 43 40 39 38 38 38 37 35 33 32 30 30 30 29 28 27 26 26 26 25 25 26 25 25 25 26 26 27 28 29 30
33 35 36 38 38 38 38 40 41 41 41 41 42 41 40 39 39 38 37 36 34 31 29 28 28 28 27 27 27 26 25 25 25 25 24 24 24 24 25 26 27 28 29
33 35 36 37 37 37 38 39 40 41 40 40 40 40 39 39 39 38 36 35 34 31 29 27 27 27 27 26 25 25 24 24 23 23 22 22 22 22 24 25 26 27 28
32 35 36 38 38 38 39 40 41 40 40 40 39 39 39 39 38 37 35 35 34 31 28 27 26 26 26 24 24 24 24 23 22 21 20 20 20 21 22 23 25 25 27
33 35 38 38 39 39 40 41 42 40 40 40 39 40 39 38 38 36 35 34 33 30 28 26 25 24 24 24 23 23 22 21 20 19 18 18 19 20 22 22 23 24 25
33 36 37 37 38 39 40 42 42 41 40 40 40 40 39 38 38 37 35 33 32 31 28 26 24 23 23 23 23 22 21 20 19 18 18 18 19 20 20 21 22 23 24
34 36 37 37 38 38 39 41 42 41 40 39 40 40 39 38 38 37 35 33 32 30 28 25 24 23 22 21 20 20 19 18 17 17 16 17 18 19 19 19 20 21 22
33 36 36 36 37 38 40 41 43 42 41 40 40 40 39 38 37 35 35 33 32 30 28 26 24 22 21 20 19 18 17 16 16 15 16 16 17 17 17 18 18 19 20
32 34 35 36 37 37 39 41 42 42 41 41 40 40 39 37 36 35 33 32 31 29 27 26 24 21 20 18 17 16 15 14 14 14 15 15 16 15 15 15 17 18 19
Wind_Direction
240 237 233 230 227 224 223 224 223 221 221 221 221 222 222 223 223 225 229 230 231 234 236 238 239 242 246 250 254 259 264 268 273 277 280 282 286 289 293 296 299 301 304
238 235 232 230 227 223 222 222 222 221 221 219 218 220 221 222 223 225 226 229 230 233 235 237 239 242 244 248 253 258 262 267 272 276 280 282 285 289 293 297 299 301 303
237 234 232 230 225 222 220 219 221 221 220 219 218 219 220 222 223 224 226 228 229 230 233 236 239 241 245 248 252 257 262 267 271 275 279 283 286 290 293 296 299 301 303
235 232 230 229 225 221 218 219 220 220 219 219 218 218 220 222 222 223 226 228 229 229 231 234 238 240 245 248 253 257 262 265 269 274 278 283 287 290 293 296 299 302 305
235 231 229 226 223 221 219 219 218 219 219 218 217 218 220 220 221 223 224 226 227 229 231 234 237 241 245 249 254 257 261 266 269 274 279 284 288 291 294 296 299 303 305
234 230 228 226 224 223 221 219 217 218 218 218 219 218 219 218 220 221 222 225 227 229 231 234 237 241 245 249 253 257 262 266 270 274 279 284 288 291 294 297 300 304 306
233 229 227 227 225 223 221 219 217 217 219 219 220 219 219 219 220 220 222 225 228 230 232 233 236 240 244 249 253 257 260 266 270 273 279 284 288 292 294 297 301 304 306
233 231 228 228 225 223 221 219 216 217 219 218 218 217 219 220 220 220 222 223 227 230 232 233 235 239 244 249 253 257 262 268 272 276 281 284 289 292 294 298 301 305 307
234 231 227 225 224 223 221 218 216 217 218 217 216 217 218 218 218 220 221 223 226 229 231 233 236 239 244 247 252 258 262 266 271 277 282 286 289 291 294 299 303 306 308
232 229 227 227 225 222 219 215 214 214 216 215 216 217 217 217 218 220 221 223 225 228 231 233 237 241 244 248 252 256 260 265 271 278 283 286 289 291 295 300 304 307 309
231 230 229 229 226 221 217 213 210 211 213 214 215 216 217 217 218 219 220 222 225 229 232 234 237 239 243 247 250 255 260 265 271 278 282 286 289 291 295 301 304 307 310
230 228 227 228 226 221 217 214 212 212 213 213 213 215 216 218 218 217 218 222 225 227 231 235 235 237 241 245 250 255 260 265 271 276 281 286 289 291 297 302 305 308 311
230 226 226 227 224 220 216 215 213 212 213 214 213 214 215 217 217 218 219 223 224 227 230 233 233 235 239 244 249 254 258 265 271 275 280 285 289 294 298 302 305 309 312
229 226 225 224 221 219 216 213 212 212 212 213 212 212 214 214 215 218 219 221 224 227 229 232 233 235 240 245 247 252 257 264 270 275 281 285 289 294 299 302 306 310 313
229 225 222 222 220 217 213 210 210 211 211 211 211 212 213 213 213 215 218 219 222 226 229 231 232 236 241 245 248 253 258 264 269 275 280 285 290 295 299 302 306 310 313
230 224 221 220 218 215 212 211 209 208 208 208 208 211 213 215 215 216 217 220 222 225 227 229 232 238 242 244 250 254 258 263 269 275 281 287 291 295 298 303 307 311 314
229 225 221 218 217 215 213 211 209 207 208 209 209 211 213 214 215 216 218 220 222 224 225 228 231 235 239 242 246 251 258 264 270 274 280 286 290 295 299 303 307 311 315
228 224 220 217 215 213 212 210 209 208 208 209 210 211 212 213 214 214 216 218 220 222 223 225 228 232 236 241 246 252 258 264 269 275 281 286 290 295 300 304 308 313 318
225 220 217 214 213 212 211 208 208 207 207 208 210 210 211 213 213 214 216 217 218 220 222 224 227 230 235 241 247 253 258 263 269 275 279 285 290 295 300 304 309 314 318
221 217 214 211 211 210 209 207 206 205 204 205 207 209 211 211 212 212 213 214 216 218 221 222 224 228 234 241 246 251 256 262 268 274 278 282 287 293 300 305 310 314 318
217 213 210 207 207 206 206 205 203 202 202 203 205 207 208 208 209 209 210 212 214 215 218 220 224 229 233 238 243 249 255 262 267 272 276 280 285 293 300 306 310 315 319
211 209 206 205 204 204 204 202 200 200 200 203 204 203 203 204 204 206 207 209 210 213 216 219 224 228 230 233 241 249 256 260 264 268 274 280 287 295 301 306 311 315 320
208 206 203 202 201 202 201 200 199 198 199 201 201 200 200 200 202 204 207 207 210 213 216 220 224 225 227 233 240 248 254 257 262 267 274 281 289 295 301 306 311 315 319
206 204 202 201 200 200 200 199 197 197 196 196 196 197 198 200 201 203 204 206 208 211 214 218 221 224 228 233 240 247 251 255 259 264 273 282 289 296 302 307 311 315 321
203 202 201 200 199 199 198 197 196 194 194 193 194 195 197 198 199 201 203 204 206 209 212 214 218 224 229 231 236 241 247 253 256 262 272 282 289 296 302 307 312 318 323
198 197 198 197 197 196 195 194 193 192 192 192 193 194 196 197 197 198 200 202 206 208 210 212 217 223 228 229 231 235 244 250 255 263 274 283 290 296 301 307 314 319 324